N5RML-1 Weather Reports


Display with metric or nautical units.
time (UTC)temp
F
wind
direction
speed
MPH
gust
MPH
rain 1hr
in
rain 24hr
in
rain mn
in
humidity
%
barometer
mb
20260503034533 67 351 5.0 7.0 0.00 0.52 0.47 52 1020.4
20260503033523 68 5 5.0 8.0 0.00 0.56 0.47 50 1020.3
20260503032533 68 4 4.0 5.0 0.00 0.58 0.47 48 1020.1
20260503031520 68 351 4.0 6.0 0.00 0.59 0.47 49 1020.1
20260503030528 68 19 4.0 6.0 0.00 0.59 0.47 48 1020.0
20260503025537 68 17 4.0 6.0 0.00 0.59 0.47 49 1019.9
20260503024526 68 18 4.0 5.0 0.00 0.59 0.47 48 1019.8
20260503023533 68 1 6.0 8.0 0.00 0.59 0.47 46 1019.8
20260503022523 68 349 4.0 7.0 0.00 0.59 0.47 46 1019.6
20260503021532 68 6 5.0 9.0 0.00 0.59 0.47 46 1019.5
20260503020521 68 313 5.0 7.0 0.00 0.59 0.47 46 1019.4
20260503015609 68 329 6.0 11.0 0.00 0.59 0.47 47 1019.3
20260503014535 68 340 5.0 7.0 0.00 0.60 0.47 47 1019.2
20260503013529 68 346 4.0 8.0 0.00 0.60 0.47 48 1019.2
20260503012533 69 353 5.0 7.0 0.00 0.60 0.47 48 1019.0
20260503011523 69 3 4.0 6.0 0.00 0.61 0.47 48 1018.9
20260503010530 69 21 3.0 4.0 0.00 0.62 0.47 49 1018.7
20260503005519 69 0 4.0 6.0 0.00 0.62 0.47 48 1018.6
20260503004527 69 351 3.0 5.0 0.00 0.62 0.47 48 1018.4
20260503003536 70 331 3.0 7.0 0.00 0.62 0.47 46 1018.3
20260503002545 70 352 4.0 6.0 0.00 0.65 0.47 44 1018.1
20260503001532 70 342 4.0 7.0 0.00 0.70 0.47 45 1017.9
20260503000522 71 14 4.0 8.0 0.00 0.79 0.47 43 1017.8
20260502235530 72 354 4.0 6.0 0.00 0.80 0.47 43 1017.8
20260502234522 73 23 4.0 6.0 0.00 0.81 0.47 41 1017.6
20260502233527 75 335 4.0 6.0 0.00 0.86 0.47 40 1017.4
20260502232537 76 339 5.0 8.0 0.00 0.92 0.47 38 1017.3
20260502231545 77 357 4.0 7.0 0.00 0.98 0.47 39 1017.2
20260502230532 76 335 5.0 12.0 0.00 1.00 0.47 38 1017.2
20260502225522 75 3 4.0 6.0 0.00 1.00 0.47 39 1017.1
20260502224530 75 350 4.0 7.0 0.00 1.00 0.47 39 1017.0
20260502223519 75 335 4.0 8.0 0.00 1.00 0.47 39 1017.0
20260502222527 76 7 5.0 9.0 0.00 1.00 0.47 39 1016.9
20260502221535 76 3 5.0 8.0 0.00 1.00 0.47 39 1016.9
20260502220524 76 334 5.0 8.0 0.00 1.00 0.47 39 1016.9
20260502215532 76 26 5.0 8.0 0.00 1.00 0.47 39 1016.9
20260502214521 76 333 5.0 12.0 0.00 1.00 0.47 39 1017.0
20260502213530 76 351 6.0 9.0 0.00 1.00 0.47 39 1016.9
20260502212519 76 19 4.0 7.0 0.00 1.02 0.47 40 1016.8
20260502211530 76 345 6.0 11.0 0.00 1.11 0.47 41 1016.8
20260502210535 76 349 6.0 9.0 0.00 1.11 0.47 41 1016.9
20260502205524 76 17 5.0 9.0 0.00 1.15 0.47 42 1016.9
20260502204532 76 329 6.0 9.0 0.00 1.21 0.47 42 1016.8
20260502203522 76 360 6.0 10.0 0.00 1.25 0.47 43 1016.9
20260502202551 76 319 6.0 8.0 0.00 1.36 0.47 44 1016.9
20260502201538 76 342 5.0 8.0 0.00 1.42 0.47 46 1017.0
20260502200547 76 312 6.0 10.0 0.00 1.70 0.47 48 1017.2
20260502195534 75 5 6.0 10.0 0.00 2.29 0.47 49 1017.2
20260502194524 76 352 6.0 9.0 0.00 2.41 0.47 51 1017.3
20260502193532 75 319 6.0 9.0 0.00 2.44 0.47 53 1017.4
20260502192521 75 14 6.0 10.0 0.00 2.50 0.47 53 1017.4
20260502191530 75 341 6.0 9.0 0.00 2.50 0.47 55 1017.4
20260502190537 75 356 5.0 9.0 0.00 2.50 0.47 56 1017.4
20260502185526 75 338 6.0 10.0 0.00 2.50 0.47 54 1017.4
20260502184534 75 340 7.0 11.0 0.00 2.50 0.47 55 1017.4
20260502183544 75 20 5.0 8.0 0.00 2.50 0.47 56 1017.4
20260502182531 74 343 6.0 10.0 0.00 2.51 0.47 57 1017.5
20260502181521 73 23 5.0 9.0 0.00 2.55 0.47 58 1017.6
20260502180531 73 4 7.0 11.0 0.00 2.56 0.47 58 1017.6
20260502163526 70 352 5.0 9.0 0.00 2.56 0.47 66 1018.2
20260502162534 69 1 5.0 8.0 0.00 2.56 0.47 66 1018.3
20260502161545 69 23 5.0 8.0 0.00 2.56 0.47 67 1018.2
20260502160552 68 16 5.0 7.0 0.00 2.56 0.47 69 1018.2
20260502151534 65 2 4.0 7.0 0.00 2.56 0.47 73 1018.2
20260502150523 64 42 4.0 6.0 0.00 2.56 0.47 75 1018.2
20260502130526 58 65 3.0 9.0 0.00 2.56 0.47 82 1016.8
20260502123551 57 327 5.0 10.0 0.00 2.56 0.47 82 1016.2
20260502122521 57 52 4.0 9.0 0.00 2.56 0.47 85 1016.2
20260502121529 57 6 5.0 8.0 0.00 2.56 0.47 87 1016.1
20260502120536 57 8 4.0 7.0 0.00 2.56 0.47 88 1016.0
20260502115528 57 329 4.0 6.0 0.00 2.56 0.47 89 1015.8
20260502114536 57 16 5.0 8.0 0.00 2.56 0.47 89 1015.8
20260502113523 57 5 5.0 9.0 0.00 2.56 0.47 90 1015.5
20260502112551 57 51 4.0 8.0 0.00 2.56 0.47 91 1015.3
20260502111520 57 7 4.0 7.0 0.00 2.56 0.47 91 1015.1
20260502110530 57 354 4.0 8.0 0.00 2.56 0.47 92 1014.9
20260502105538 57 23 5.0 7.0 0.00 2.56 0.47 92 1014.8
20260502104605 57 20 4.0 8.0 0.01 2.56 0.47 92 1014.7
20260502103534 57 4 4.0 6.0 0.01 2.56 0.47 92 1014.5
20260502102523 57 19 4.0 7.0 0.01 2.56 0.47 92 1014.6
20260502101551 57 324 6.0 9.0 0.01 2.56 0.47 93 1014.5
20260502100520 56 341 4.0 9.0 0.01 2.56 0.47 93 1014.5
20260502091523 56 20 3.0 4.0 0.00 2.55 0.46 95 1014.4
20260502090531 56 6 3.0 8.0 0.00 2.55 0.46 95 1014.0
20260502071524 57 335 4.0 8.0 0.06 2.45 0.36 96 1014.0
20260502070742 0 293 4.0 4.0 0.03 2.42 0.33 1014.0
20260502070533 58 41 4.0 7.0 0.03 2.42 0.33 96 1013.6
20260502065602 58 18 3.0 5.0 0.02 2.40 0.31 96 1013.7
20260502064531 57 354 4.0 5.0 0.06 2.39 0.30 96 1014.0
20260502063520 57 5 5.0 8.0 0.21 2.39 0.30 96 1014.1
20260502062528 58 0 5.0 8.0 0.23 2.39 0.30 96 1014.2
20260502060605 58 346 3.0 5.0 0.27 2.39 0.30 96 1013.6
20260502055532 59 2 3.0 4.0 0.29 2.38 0.29 96 1014.3
20260502054522 59 104 1.0 4.0 0.26 2.33 0.24 96 1014.3
20260502053531 59 80 3.0 4.0 0.12 2.18 0.09 96 1013.8
20260502052519 59 30 3.0 5.0 0.11 2.16 0.07 96 1013.8
20260502051528 59 43 2.0 5.0 0.07 2.12 0.03 96 1014.6
20260502050535 59 356 2.0 4.0 0.07 2.12 0.03 96 1013.7
20260502045526 59 1 1.0 4.0 0.04 2.09 2.09 96 1014.0
20260502044534 59 9 1.0 7.0 0.03 2.07 2.07 96 1013.4
20260502043523 59 81 2.0 7.0 0.06 2.06 2.06 96 1013.3
20260502042530 59 43 2.0 5.0 0.07 2.05 2.05 96 1013.0
20260502041522 59 344 5.0 9.0 0.08 2.05 2.05 96 1013.2
20260502040548 59 356 2.0 4.0 0.08 2.05 2.05 96 1013.0
20260502035536 59 51 3.0 10.0 0.08 2.05 2.05 96 1013.5